When you browse on this site, cookies collect data to enhance your experience and personalize the content and advertising you see.
Visit our Privacy Policy to learn more. By continuing to use the site, you agree to this use of cookies and data.
EN

Hourly Weather Albufeira

Today, 7 August, Friday

Time Temperature Precipitation Wind Pressure Humidity
00:00 +23°C° 0 mm 2 mps 755 mmHg 87%
01:00 +21°C° 0 mm 2 mps 755 mmHg 90%
02:00 +22°C° 0 mm 1 mps 755 mmHg 93%
03:00 +22°C° 0 mm 1 mps 755 mmHg 93%
04:00 +22°C° 0 mm 1 mps 756 mmHg 94%
05:00 +23°C° 0 mm 2 mps 756 mmHg 97%
06:00 +25°C° 0 mm 2 mps 756 mmHg 88%
07:00 +27°C° 0 mm 2 mps 756 mmHg 79%
08:00 +29°C° 0 mm 2 mps 757 mmHg 70%
09:00 +30°C° 0 mm 2 mps 757 mmHg 61%
10:00 +32°C° 0 mm 2 mps 757 mmHg 51%
11:00 +35°C° 0 mm 2 mps 757 mmHg 43%
12:00 +35°C° 0 mm 3 mps 757 mmHg 44%
13:00 +35°C° 0 mm 3 mps 757 mmHg 44%
14:00 +35°C° 0 mm 3 mps 757 mmHg 45%
15:00 +34°C° 0 mm 3 mps 757 mmHg 47%
16:00 +33°C° 0 mm 3 mps 757 mmHg 50%
17:00 +31°C° 0 mm 3 mps 756 mmHg 52%
18:00 +28°C° 0 mm 2 mps 757 mmHg 62%
19:00 +25°C° 0 mm 2 mps 757 mmHg 72%
20:00 +23°C° 0 mm 2 mps 757 mmHg 82%
21:00 +21°C° 0 mm 2 mps 758 mmHg 80%
22:00 +21°C° 0 mm 2 mps 758 mmHg 78%
23:00 +21°C° 0 mm 2 mps 758 mmHg 76%

Tomorrow, 8 August, Saturday

Time Temperature Precipitation Wind Pressure Humidity
00:00 +21°C° 0 mm 2 mps 758 mmHg 75%
01:00 +21°C° 0 mm 2 mps 758 mmHg 75%
02:00 +20°C° 0 mm 2 mps 758 mmHg 75%
03:00 +20°C° 0 mm 2 mps 758 mmHg 75%
04:00 +20°C° 0 mm 2 mps 758 mmHg 76%
05:00 +19°C° 0 mm 2 mps 758 mmHg 77%
06:00 +24°C° 0 mm 2 mps 758 mmHg 66%
07:00 +28°C° 0 mm 2 mps 758 mmHg 55%
08:00 +31°C° 0 mm 1 mps 758 mmHg 44%
09:00 +34°C° 0 mm 2 mps 758 mmHg 41%
10:00 +35°C° 0 mm 2 mps 758 mmHg 38%
11:00 +37°C° 0 mm 2 mps 758 mmHg 35%
12:00 +37°C° 0 mm 3 mps 757 mmHg 35%
13:00 +37°C° 0 mm 3 mps 757 mmHg 34%
14:00 +37°C° 0 mm 4 mps 757 mmHg 33%
15:00 +36°C° 0 mm 4 mps 756 mmHg 34%
16:00 +35°C° 0 mm 5 mps 756 mmHg 36%
17:00 +34°C° 0 mm 5 mps 756 mmHg 37%
18:00 +30°C° 0 mm 5 mps 756 mmHg 45%
19:00 +27°C° 0 mm 5 mps 756 mmHg 54%
20:00 +23°C° 0 mm 5 mps 757 mmHg 62%
21:00 +22°C° 0 mm 5 mps 757 mmHg 64%
22:00 +22°C° 0 mm 4 mps 757 mmHg 66%
23:00 +21°C° 0 mm 3 mps 757 mmHg 69%

Day after tomorrow, 9 August, Sunday

Time Temperature Precipitation Wind Pressure Humidity
00:00 +21°C° 0 mm 3 mps 756 mmHg 67%
01:00 +21°C° 0 mm 3 mps 756 mmHg 66%
02:00 +21°C° 0 mm 3 mps 756 mmHg 64%
03:00 +20°C° 0 mm 3 mps 756 mmHg 65%
04:00 +20°C° 0 mm 3 mps 756 mmHg 66%
05:00 +20°C° 0 mm 3 mps 756 mmHg 67%
06:00 +24°C° 0 mm 3 mps 756 mmHg 56%
07:00 +28°C° 0 mm 2 mps 756 mmHg 46%
08:00 +31°C° 0 mm 2 mps 756 mmHg 35%
09:00 +34°C° 0 mm 2 mps 756 mmHg 30%
10:00 +37°C° 0 mm 2 mps 756 mmHg 26%
11:00 +39°C° 0 mm 2 mps 756 mmHg 21%
12:00 +39°C° 0 mm 3 mps 756 mmHg 22%
13:00 +40°C° 0 mm 4 mps 755 mmHg 23%
14:00 +39°C° 0 mm 5 mps 755 mmHg 23%
15:00 +37°C° 0 mm 5 mps 755 mmHg 27%
16:00 +35°C° 0 mm 6 mps 754 mmHg 31%
17:00 +33°C° 0 mm 6 mps 754 mmHg 34%
18:00 +29°C° 0 mm 6 mps 755 mmHg 46%
19:00 +26°C° 0 mm 6 mps 755 mmHg 58%
20:00 +22°C° 0 mm 6 mps 755 mmHg 70%
21:00 +21°C° 0 mm 5 mps 755 mmHg 73%
22:00 +20°C° 0 mm 5 mps 755 mmHg 76%
23:00 +19°C° 0 mm 5 mps 755 mmHg 79%

10 August, Monday

Time Temperature Precipitation Wind Pressure Humidity
00:00 +19°C° 0 mm 5 mps 754 mmHg 83%
01:00 +17°C° 0 mm 5 mps 754 mmHg 86%
02:00 +18°C° 0 mm 4 mps 754 mmHg 90%
03:00 +17°C° 0 mm 4 mps 754 mmHg 91%
04:00 +17°C° 0 mm 4 mps 754 mmHg 92%
05:00 +17°C° 0 mm 4 mps 754 mmHg 93%
06:00 +20°C° 0 mm 4 mps 754 mmHg 79%
07:00 +23°C° 0 mm 4 mps 754 mmHg 65%
08:00 +27°C° 0 mm 3 mps 754 mmHg 51%
09:00 +30°C° 0 mm 4 mps 754 mmHg 42%
10:00 +33°C° 0 mm 4 mps 754 mmHg 33%
11:00 +36°C° 0 mm 4 mps 754 mmHg 24%
12:00 +37°C° 0 mm 5 mps 754 mmHg 24%
13:00 +37°C° 0 mm 5 mps 753 mmHg 24%
14:00 +39°C° 0 mm 6 mps 753 mmHg 25%
15:00 +36°C° 0 mm 6 mps 753 mmHg 31%
16:00 +33°C° 0 mm 7 mps 753 mmHg 37%
17:00 +30°C° 0 mm 7 mps 752 mmHg 43%
18:00 +27°C° 0 mm 7 mps 753 mmHg 54%
19:00 +24°C° 0 mm 7 mps 753 mmHg 64%
20:00 +21°C° 0 mm 6 mps 754 mmHg 75%
21:00 +20°C° 0 mm 6 mps 754 mmHg 78%
22:00 +20°C° 0 mm 5 mps 754 mmHg 82%
23:00 +19°C° 0 mm 5 mps 754 mmHg 85%

11 August, Tuesday

Time Temperature Precipitation Wind Pressure Humidity
00:00 +18°C° 0 mm 4 mps 754 mmHg 88%
01:00 +17°C° 0 mm 4 mps 754 mmHg 91%
02:00 +17°C° 0 mm 4 mps 754 mmHg 93%
03:00 +17°C° 0 mm 4 mps 754 mmHg 93%
04:00 +17°C° 0 mm 4 mps 754 mmHg 94%
05:00 +15°C° 0 mm 4 mps 754 mmHg 94%
06:00 +19°C° 0 mm 4 mps 754 mmHg 81%
07:00 +22°C° 0 mm 4 mps 754 mmHg 68%
08:00 +25°C° 0 mm 4 mps 755 mmHg 56%
09:00 +28°C° 0 mm 4 mps 755 mmHg 46%
10:00 +30°C° 0 mm 4 mps 755 mmHg 37%
11:00 +34°C° 0 mm 4 mps 755 mmHg 27%
12:00 +34°C° 0 mm 5 mps 755 mmHg 27%
13:00 +35°C° 0 mm 6 mps 754 mmHg 27%
14:00 +35°C° 0 mm 7 mps 754 mmHg 27%
15:00 +33°C° 0 mm 7 mps 754 mmHg 35%
16:00 +31°C° 0 mm 8 mps 754 mmHg 43%
17:00 +27°C° 0 mm 8 mps 754 mmHg 51%
18:00 +24°C° 0 mm 7 mps 754 mmHg 63%
19:00 +22°C° 0 mm 7 mps 755 mmHg 76%
20:00 +18°C° 0 mm 7 mps 755 mmHg 88%
21:00 +19°C° 0 mm 6 mps 755 mmHg 89%
22:00 +19°C° 0 mm 6 mps 756 mmHg 90%
23:00 +19°C° 0 mm 6 mps 756 mmHg 91%

12 August, Wednesday

Time Temperature Precipitation Wind Pressure Humidity
00:00 +19°C° 0 mm 6 mps 756 mmHg 92%
01:00 +19°C° 0 mm 5 mps 755 mmHg 92%
02:00 +17°C° 0 mm 5 mps 755 mmHg 92%
03:00 +17°C° 0 mm 5 mps 755 mmHg 91%
04:00 +18°C° 0 mm 4 mps 756 mmHg 90%
05:00 +19°C° 0 mm 4 mps 756 mmHg 88%
06:00 +20°C° 0 mm 4 mps 756 mmHg 80%
07:00 +22°C° 0 mm 4 mps 756 mmHg 72%
08:00 +25°C° 0 mm 4 mps 757 mmHg 63%
09:00 +27°C° 0 mm 4 mps 757 mmHg 56%
10:00 +29°C° 0 mm 5 mps 756 mmHg 48%
11:00 +32°C° 0 mm 5 mps 756 mmHg 41%
12:00 +33°C° 0 mm 6 mps 756 mmHg 39%
13:00 +33°C° 0 mm 7 mps 756 mmHg 37%
14:00 +34°C° 0 mm 8 mps 756 mmHg 34%
15:00 +32°C° 0 mm 8 mps 756 mmHg 39%
16:00 +31°C° 0 mm 8 mps 756 mmHg 43%
17:00 +28°C° 0 mm 8 mps 756 mmHg 47%
18:00 +26°C° 0 mm 7 mps 756 mmHg 55%
19:00 +23°C° 0 mm 7 mps 756 mmHg 63%
20:00 +21°C° 0 mm 6 mps 757 mmHg 71%
21:00 +20°C° 0 mm 6 mps 757 mmHg 75%
22:00 +19°C° 0 mm 6 mps 757 mmHg 80%
23:00 +17°C° 0 mm 6 mps 757 mmHg 84%
Show more